This is the latest recevied weather packets stored in our database for station/object TA2CAY. If no packets are shown the sender has not sent any weather packets the latest 1 day(s).
| Time | Temp. | Humidity | Pressure | Rain* | Wind** | Luminosity | Snow |
|---|---|---|---|---|---|---|---|
| 1777928207 | 13.89° C | 82% | 1021.2 hPa | - | - | - | - |
| 1777926406 | 13.33° C | 78% | 1021.3 hPa | - | - | - | - |
| 1777924605 | 13.33° C | 76% | 1021.3 hPa | - | - | - | - |
| 1777922805 | 13.33° C | 75% | 1021.1 hPa | - | - | - | - |
| 1777921004 | 13.89° C | 68% | 1020.8 hPa | - | - | - | - |
| 1777919203 | 13.33° C | 61% | 1020.8 hPa | - | - | - | - |
| 1777917402 | 13.89° C | 50% | 1020.3 hPa | - | - | - | - |
| 1777915601 | 13.89° C | 18% | 1019.9 hPa | - | - | - | - |
| 1777913800 | 13.89° C | 100% | 1019.8 hPa | - | - | - | - |
| 1777911999 | 15° C | 100% | 1019.5 hPa | - | - | - | - |
| 1777910198 | 14.44° C | 38% | 1019.5 hPa | - | - | - | - |
| 1777908397 | 14.44° C | 77% | 1019.3 hPa | - | - | - | - |
| 1777906596 | 13.89° C | 89% | 1019.2 hPa | - | - | - | - |
| 1777904796 | 15.56° C | 73% | 1019.2 hPa | - | - | - | - |
| 1777902995 | 15° C | 75% | 1019 hPa | - | - | - | - |
| 1777901194 | 15.56° C | 74% | 1019 hPa | - | - | - | - |
| 1777899393 | 15.56° C | 73% | 1019 hPa | - | - | - | - |
| 1777897592 | 15.56° C | 73% | 1018.8 hPa | - | - | - | - |
| 1777895791 | 16.11° C | 71% | 1018.6 hPa | - | - | - | - |
| 1777893990 | 16.11° C | 72% | 1018.8 hPa | - | - | - | - |
| 1777892190 | 16.67° C | 69% | 1018.7 hPa | - | - | - | - |
| 1777890389 | 16.11° C | 70% | 1018.7 hPa | - | - | - | - |
| 1777888588 | 16.67° C | 70% | 1018.6 hPa | - | - | - | - |
| 1777886787 | 16.67° C | 70% | 1018.6 hPa | - | - | - | - |
| 1777884986 | 17.22° C | 68% | 1018.8 hPa | - | - | - | - |
* Rain since midnight (hover to see other rain measurements)
** Current wind speed in m/s (hover to see current wind gust speed)